Home   Weather   Amman   Past weeks
Flag for Jordan

Past Weather in Amman, Jordan — Yesterday and Last 2 Weeks

Now
82 °F

Haze.


Feels Like: 81 °F
Forecast: 81 / 65 °F
Wind: 3 mph from South

Location: Amman Airport

Current Time: Oct 17, 2019 at 1:25:45 pm

Latest Report: Oct 17, 2019 at 1:00 pm


Visibility: 3 mi

Pressure: 30.12 "Hg (27.46 "Hg at 816m altitude)

Humidity: 35%

Dew Point: 52 °F

Location of AmmanLocation

Past Weather in Amman — Graph

°F

Amman Temperature Yesterday

Maximum temperature yesterday: 82 °F (at 1:00 pm)
Minimum temperature yesterday: 70 °F (at 4:00 am)
Average temperature yesterday: 74 °F

High & Low Weather Summary for the Past Weeks

 TemperatureHumidityPressure
High93 °F (Oct 10, 3:00 pm)88% (Oct 7, 3:00 am)30.18 "Hg (Oct 7, 3:00 am)
Low61 °F (Oct 4, 7:00 am)9% (Oct 4, 5:00 pm)29.92 "Hg (Oct 5, 3:00 pm)
Average76 °F44%30.04 "Hg
* Reported Oct 2 12:00 pm — Oct 17 12:00 pm, Amman. Weather by CustomWeather, © 2019

Note: Actual official high and low records may vary slightly from our data, if they occured in-between our weather recording intervals... More about our weather records

Advertising

Amman Weather History for the Previous 24 Hours

Scroll right to see more
 ConditionsComfort  
Time TempWeatherWind HumidityBarometerVisibility
12:00 pm
Thu, Oct 17
81 °FHaze.7 mph39%30.12 "Hg3 mi
11:00 am77 °FClear.3 mph44%30.12 "Hg2 mi
10:00 am77 °FClear.1 mph51%30.12 "Hg2 mi
9:00 am73 °FClear.No wind57%30.12 "Hg2 mi
8:00 am68 °FHaze.No wind69%30.12 "Hg2 mi
7:00 am66 °FHaze.No wind73%30.09 "Hg2 mi
6:00 am66 °FHaze.No wind78%30.09 "Hg3 mi
5:00 am66 °FHaze.5 mph73%30.09 "Hg3 mi
4:00 am66 °FHaze.No wind68%30.09 "Hg3 mi
3:00 am68 °FHaze.No wind69%30.09 "Hg3 mi
2:00 am66 °FHaze.2 mph78%30.09 "Hg3 mi
1:00 am70 °FHaze.3 mph64%30.09 "Hg3 mi
12:00 am73 °FPassing clouds.12 mph69%30.09 "Hg3 mi
11:00 pm
Wed, Oct 16
73 °FLight rain. Passing clouds.7 mph53%30.12 "Hg3 mi
10:10 pm72 °FPassing clouds.12 mph50%30.12 "Hg4 mi
10:00 pm72 °FSprinkles. Passing clouds.5 mph50%30.09 "Hg3 mi
9:00 pm72 °FClear.5 mph50%30.07 "Hg4 mi
8:00 pm73 °FPassing clouds.No wind47%30.07 "Hg4 mi
7:00 pm75 °FPassing clouds.No wind44%30.04 "Hg4 mi
6:00 pm79 °FSprinkles. Scattered clouds.5 mph39%30.04 "Hg3 mi
5:00 pm81 °FSprinkles. Scattered clouds.7 mph34%30.04 "Hg3 mi
4:40 pm82 °FThunderstorms. Scattered clouds.7 mph32%30.04 "Hg2 mi
4:00 pm82 °FScattered clouds.7 mph30%30.04 "Hg3 mi
3:00 pm79 °FScattered clouds.10 mph37%30.07 "Hg3 mi
2:00 pm81 °FLight rain. Clear.8 mph30%30.09 "Hg4 mi
1:00 pm82 °FClear.13 mph37%30.09 "Hg4 mi
Weather by CustomWeather, © 2019

See weather overview